Time,TemperatureF,DewpointF,PressureIn,WindDirection,WindDirectionDegrees,WindSpeedMPH,WindSpeedGustMPH,Humidity,HourlyPrecipIn,Conditions,Clouds,dailyrainin,SoftwareType,DateUTC
2013-08-21 00:05:00,68.0,66.2,30.12,SE,136,0.0,1.0,94,0.00,,,0.00,Wunderground v.1.15,2013-08-21 04:05:00,
2013-08-21 00:09:00,68.0,66.2,30.12,SE,136,0.0,1.0,94,0.00,,,0.00,Wunderground v.1.15,2013-08-21 04:09:00,
2013-08-21 00:19:00,68.0,66.5,30.12,SE,135,0.0,1.0,95,0.00,,,0.00,Wunderground v.1.15,2013-08-21 04:19:00,
2013-08-21 00:24:00,68.0,66.5,30.12,SE,135,0.0,1.0,95,0.00,,,0.00,Wunderground v.1.15,2013-08-21 04:24:00,
2013-08-21 00:34:00,67.9,66.4,30.12,SE,135,0.0,1.0,95,0.00,,,0.00,Wunderground v.1.15,2013-08-21 04:34:00,
2013-08-21 00:40:00,67.8,66.3,30.12,SE,135,0.0,1.0,95,0.00,,,0.00,Wunderground v.1.15,2013-08-21 04:40:00,
2013-08-21 00:45:00,67.8,66.3,30.12,SE,135,0.0,1.0,95,0.00,,,0.00,Wunderground v.1.15,2013-08-21 04:45:00,
2013-08-21 00:50:00,67.7,66.2,30.12,SE,135,0.0,1.0,95,0.00,,,0.00,Wunderground v.1.15,2013-08-21 04:50:00,
2013-08-21 01:00:00,67.7,66.2,30.12,SE,135,0.0,1.0,95,0.00,,,0.00,Wunderground v.1.15,2013-08-21 05:00:00,
2013-08-21 01:05:00,67.7,66.2,30.12,SE,136,0.0,1.0,95,0.00,,,0.00,Wunderground v.1.15,2013-08-21 05:05:00,
2013-08-21 01:14:00,67.5,66.3,30.12,SE,135,0.0,1.0,96,0.00,,,0.00,Wunderground v.1.15,2013-08-21 05:14:00,
2013-08-21 01:19:00,67.5,66.3,30.11,SE,135,0.0,1.0,96,0.00,,,0.00,Wunderground v.1.15,2013-08-21 05:19:00,
2013-08-21 01:29:00,67.3,66.1,30.11,SE,135,0.0,1.0,96,0.00,,,0.00,Wunderground v.1.15,2013-08-21 05:29:00,
2013-08-21 01:34:00,67.3,66.1,30.11,SE,136,0.0,1.0,96,0.00,,,0.00,Wunderground v.1.15,2013-08-21 05:34:00,
2013-08-21 01:45:00,67.2,66.0,30.11,SE,135,0.0,1.0,96,0.00,,,0.00,Wunderground v.1.15,2013-08-21 05:45:00,
2013-08-21 01:50:00,67.1,65.9,30.11,SE,136,0.0,1.0,96,0.00,,,0.00,Wunderground v.1.15,2013-08-21 05:50:00,
2013-08-21 02:00:00,67.0,65.8,30.11,SE,135,0.0,1.0,96,0.00,,,0.00,Wunderground v.1.15,2013-08-21 06:00:00,
2013-08-21 02:05:00,67.0,65.8,30.11,SE,135,0.0,1.0,96,0.00,,,0.00,Wunderground v.1.15,2013-08-21 06:05:00,
2013-08-21 02:14:00,66.9,66.0,30.11,SE,136,0.0,1.0,97,0.00,,,0.00,Wunderground v.1.15,2013-08-21 06:14:00,
2013-08-21 02:19:00,66.9,66.0,30.11,SE,135,0.0,1.0,97,0.00,,,0.00,Wunderground v.1.15,2013-08-21 06:19:00,
2013-08-21 02:30:00,66.6,65.7,30.11,SE,136,0.0,1.0,97,0.00,,,0.00,Wunderground v.1.15,2013-08-21 06:30:00,
2013-08-21 02:39:00,66.5,65.6,30.11,SE,136,0.0,1.0,97,0.00,,,0.00,Wunderground v.1.15,2013-08-21 06:39:00,
2013-08-21 02:45:00,66.4,65.5,30.11,SE,135,0.0,1.0,97,0.00,,,0.00,Wunderground v.1.15,2013-08-21 06:45:00,
2013-08-21 02:50:00,66.3,65.4,30.11,SE,136,0.0,1.0,97,0.00,,,0.00,Wunderground v.1.15,2013-08-21 06:50:00,
2013-08-21 02:59:00,66.2,65.3,30.11,SE,137,0.0,1.0,97,0.00,,,0.00,Wunderground v.1.15,2013-08-21 06:59:00,
2013-08-21 03:05:00,66.1,65.2,30.11,SE,135,0.0,1.0,97,0.00,,,0.00,Wunderground v.1.15,2013-08-21 07:05:00,
2013-08-21 03:14:00,65.9,65.0,30.11,SE,135,0.0,1.0,97,0.00,,,0.00,Wunderground v.1.15,2013-08-21 07:14:00,
2013-08-21 03:19:00,65.8,64.9,30.11,SE,136,0.0,1.0,97,0.00,,,0.00,Wunderground v.1.15,2013-08-21 07:19:00,
2013-08-21 03:30:00,65.8,64.9,30.11,SE,135,0.0,1.0,97,0.00,,,0.00,Wunderground v.1.15,2013-08-21 07:30:00,
2013-08-21 03:40:00,65.7,64.8,30.11,SE,136,0.0,1.0,97,0.00,,,0.00,Wunderground v.1.15,2013-08-21 07:40:00,
2013-08-21 03:50:00,65.6,65.0,30.11,SE,135,0.0,1.0,98,0.00,,,0.00,Wunderground v.1.15,2013-08-21 07:50:00,
2013-08-21 03:59:00,65.7,65.1,30.11,SE,136,0.0,1.0,98,0.00,,,0.00,Wunderground v.1.15,2013-08-21 07:59:00,
2013-08-21 04:05:00,65.6,65.0,30.11,SE,137,0.0,1.0,98,0.00,,,0.00,Wunderground v.1.15,2013-08-21 08:05:00,
2013-08-21 04:14:00,65.1,64.2,30.12,SE,135,0.0,1.0,97,0.00,,,0.00,Wunderground v.1.15,2013-08-21 08:14:00,
2013-08-21 04:19:00,65.1,64.5,30.12,SE,135,0.0,1.0,98,0.00,,,0.00,Wunderground v.1.15,2013-08-21 08:19:00,
2013-08-21 04:30:00,64.9,64.3,30.12,SE,135,0.0,1.0,98,0.00,,,0.00,Wunderground v.1.15,2013-08-21 08:30:00,
2013-08-21 04:40:00,65.0,64.4,30.12,SE,136,0.0,1.0,98,0.00,,,0.00,Wunderground v.1.15,2013-08-21 08:40:00,
2013-08-21 04:50:00,65.1,64.5,30.12,SE,135,0.0,1.0,98,0.00,,,0.00,Wunderground v.1.15,2013-08-21 08:50:00,
2013-08-21 04:59:00,65.1,64.5,30.12,SE,135,0.0,1.0,98,0.00,,,0.00,Wunderground v.1.15,2013-08-21 08:59:00,
2013-08-21 05:05:00,65.1,64.5,30.13,SE,135,0.0,1.0,98,0.00,,,0.00,Wunderground v.1.15,2013-08-21 09:05:00,
2013-08-21 05:14:00,64.7,64.1,30.13,SE,135,0.0,1.0,98,0.00,,,0.00,Wunderground v.1.15,2013-08-21 09:14:00,
2013-08-21 05:19:00,64.6,64.0,30.13,SE,136,0.0,1.0,98,0.00,,,0.00,Wunderground v.1.15,2013-08-21 09:19:00,
2013-08-21 05:25:00,64.6,64.0,30.13,SE,135,0.0,1.0,98,0.00,,,0.00,Wunderground v.1.15,2013-08-21 09:25:00,
2013-08-21 05:35:00,64.5,63.9,30.13,SE,135,0.0,1.0,98,0.00,,,0.00,Wunderground v.1.15,2013-08-21 09:35:00,
2013-08-21 05:45:00,64.3,63.7,30.13,SE,135,0.0,1.0,98,0.00,,,0.00,Wunderground v.1.15,2013-08-21 09:45:00,
2013-08-21 05:50:00,64.3,63.7,30.13,SE,135,0.0,1.0,98,0.00,,,0.00,Wunderground v.1.15,2013-08-21 09:50:00,
2013-08-21 05:59:00,64.4,63.8,30.13,SE,135,0.0,1.0,98,0.00,,,0.00,Wunderground v.1.15,2013-08-21 09:59:00,
2013-08-21 06:04:00,64.4,63.8,30.14,SE,135,0.0,1.0,98,0.00,,,0.00,Wunderground v.1.15,2013-08-21 10:04:00,
2013-08-21 06:15:00,64.3,63.7,30.14,SE,135,0.0,1.0,98,0.00,,,0.00,Wunderground v.1.15,2013-08-21 10:15:00,
2013-08-21 06:25:00,64.3,63.7,30.15,SE,135,0.0,1.0,98,0.00,,,0.00,Wunderground v.1.15,2013-08-21 10:25:00,
2013-08-21 06:35:00,64.2,63.6,30.15,SE,135,0.0,1.0,98,0.00,,,0.00,Wunderground v.1.15,2013-08-21 10:35:00,
2013-08-21 06:44:00,64.7,64.4,30.15,SE,135,0.0,1.0,99,0.00,,,0.00,Wunderground v.1.15,2013-08-21 10:44:00,
2013-08-21 06:50:00,64.7,64.4,30.15,SE,135,0.0,1.0,99,0.00,,,0.00,Wunderground v.1.15,2013-08-21 10:50:00,
2013-08-21 06:59:00,65.0,64.7,30.15,SE,136,0.0,1.0,99,0.00,,,0.00,Wunderground v.1.15,2013-08-21 10:59:00,
2013-08-21 07:04:00,65.2,64.9,30.15,SE,136,0.0,1.0,99,0.00,,,0.00,Wunderground v.1.15,2013-08-21 11:04:00,
2013-08-21 07:15:00,65.4,65.1,30.15,SE,135,0.0,1.0,99,0.00,,,0.00,Wunderground v.1.15,2013-08-21 11:15:00,
2013-08-21 07:25:00,66.8,66.5,30.15,SE,136,0.0,1.0,99,0.00,,,0.00,Wunderground v.1.15,2013-08-21 11:25:00,
2013-08-21 07:35:00,67.6,67.3,30.15,SE,135,0.0,1.0,99,0.00,,,0.00,Wunderground v.1.15,2013-08-21 11:35:00,
2013-08-21 07:44:00,68.2,67.9,30.16,South,177,0.0,1.0,99,0.00,,,0.00,Wunderground v.1.15,2013-08-21 11:44:00,
2013-08-21 07:49:00,68.3,68.0,30.16,South,180,0.0,1.0,99,0.00,,,0.00,Wunderground v.1.15,2013-08-21 11:49:00,
2013-08-21 08:00:00,68.6,68.3,30.16,South,184,0.0,1.0,99,0.00,,,0.00,Wunderground v.1.15,2013-08-21 12:00:00,
2013-08-21 08:10:00,68.8,68.5,30.16,South,183,0.0,1.0,99,0.00,,,0.00,Wunderground v.1.15,2013-08-21 12:10:00,
2013-08-21 08:20:00,69.2,68.9,30.16,South,184,0.0,1.0,99,0.00,,,0.00,Wunderground v.1.15,2013-08-21 12:20:00,
2013-08-21 08:29:00,69.7,69.4,30.16,South,184,0.0,1.0,99,0.00,,,0.00,Wunderground v.1.15,2013-08-21 12:29:00,
2013-08-21 08:35:00,69.9,69.3,30.16,South,184,0.0,1.0,98,0.00,,,0.00,Wunderground v.1.15,2013-08-21 12:35:00,
2013-08-21 08:44:00,70.3,68.5,30.16,NNW,330,0.0,1.0,94,0.00,,,0.00,Wunderground v.1.15,2013-08-21 12:44:00,
2013-08-21 08:49:00,70.8,68.4,30.16,West,270,0.0,1.0,92,0.00,,,0.00,Wunderground v.1.15,2013-08-21 12:49:00,
2013-08-21 09:00:00,71.7,68.6,30.16,WNW,293,0.0,1.0,90,0.00,,,0.00,Wunderground v.1.15,2013-08-21 13:00:00,
2013-08-21 09:05:00,72.0,68.6,30.16,West,273,0.0,1.0,89,0.00,,,0.00,Wunderground v.1.15,2013-08-21 13:05:00,
2013-08-21 09:15:00,72.3,67.9,30.16,WNW,290,0.0,1.0,86,0.00,,,0.00,Wunderground v.1.15,2013-08-21 13:15:00,
2013-08-21 09:20:00,72.5,68.1,30.16,WSW,253,0.0,1.0,86,0.00,,,0.00,Wunderground v.1.15,2013-08-21 13:20:00,
2013-08-21 09:29:00,72.8,68.0,30.16,West,271,1.0,1.0,85,0.00,,,0.00,Wunderground v.1.15,2013-08-21 13:29:00,
2013-08-21 09:39:00,73.1,68.3,30.16,West,274,1.0,1.0,85,0.00,,,0.00,Wunderground v.1.15,2013-08-21 13:39:00,
2013-08-21 09:49:00,73.8,68.7,30.16,WSW,248,0.0,2.0,84,0.00,,,0.00,Wunderground v.1.15,2013-08-21 13:49:00,
2013-08-21 10:00:00,74.5,69.3,30.16,WSW,251,0.0,1.0,84,0.00,,,0.00,Wunderground v.1.15,2013-08-21 14:00:00,
2013-08-21 10:05:00,74.8,68.6,30.16,NNW,342,1.0,1.0,81,0.00,,,0.00,Wunderground v.1.15,2013-08-21 14:05:00,
2013-08-21 10:15:00,75.3,68.3,30.16,West,265,0.0,1.0,79,0.00,,,0.00,Wunderground v.1.15,2013-08-21 14:15:00,
2013-08-21 10:20:00,75.6,68.3,30.16,WSW,256,1.0,1.0,78,0.00,,,0.00,Wunderground v.1.15,2013-08-21 14:20:00,
2013-08-21 10:29:00,75.9,68.5,30.16,NW,325,1.0,1.0,78,0.00,,,0.00,Wunderground v.1.15,2013-08-21 14:29:00,
2013-08-21 10:34:00,76.2,68.8,30.16,NNW,347,1.0,1.0,78,0.00,,,0.00,Wunderground v.1.15,2013-08-21 14:34:00,
2013-08-21 10:45:00,77.1,68.9,30.16,West,263,0.0,1.0,76,0.00,,,0.00,Wunderground v.1.15,2013-08-21 14:45:00,
2013-08-21 10:55:00,78.1,69.5,30.16,West,262,0.0,1.0,75,0.00,,,0.00,Wunderground v.1.15,2013-08-21 14:55:00,
2013-08-21 11:05:00,78.7,67.2,30.16,NW,321,1.0,1.0,68,0.00,,,0.00,Wunderground v.1.15,2013-08-21 15:05:00,
2013-08-21 11:14:00,79.9,69.7,30.16,West,278,0.0,1.0,71,0.00,,,0.00,Wunderground v.1.15,2013-08-21 15:14:00,
2013-08-21 11:20:00,80.4,70.5,30.16,WSW,257,1.0,2.0,72,0.00,,,0.00,Wunderground v.1.15,2013-08-21 15:20:00,
2013-08-21 11:29:00,80.8,67.5,30.16,WSW,250,1.0,1.0,64,0.00,,,0.00,Wunderground v.1.15,2013-08-21 15:29:00,
2013-08-21 11:34:00,81.1,68.7,30.16,West,275,1.0,1.0,66,0.00,,,0.00,Wunderground v.1.15,2013-08-21 15:34:00,
2013-08-21 11:45:00,81.6,69.1,30.16,WSW,255,1.0,2.0,66,0.00,,,0.00,Wunderground v.1.15,2013-08-21 15:45:00,
2013-08-21 11:55:00,82.2,69.3,30.16,West,278,1.0,2.0,65,0.00,,,0.00,Wunderground v.1.15,2013-08-21 15:55:00,
2013-08-21 12:05:00,82.6,68.3,30.16,WSW,256,1.0,3.0,62,0.00,,,0.00,Wunderground v.1.15,2013-08-21 16:05:00,
2013-08-21 12:14:00,82.9,68.5,30.15,WNW,300,1.0,1.0,62,0.00,,,0.00,Wunderground v.1.15,2013-08-21 16:14:00,
2013-08-21 12:19:00,83.2,68.8,30.15,SW,235,1.0,1.0,62,0.00,,,0.00,Wunderground v.1.15,2013-08-21 16:19:00,
2013-08-21 12:29:00,83.5,68.2,30.15,WNW,293,1.0,1.0,60,0.00,,,0.00,Wunderground v.1.15,2013-08-21 16:29:00,
2013-08-21 12:34:00,83.5,66.7,30.15,NW,305,1.0,1.0,57,0.00,,,0.00,Wunderground v.1.15,2013-08-21 16:34:00,
2013-08-21 12:40:00,83.4,67.1,30.15,West,280,2.0,2.0,58,0.00,,,0.00,Wunderground v.1.15,2013-08-21 16:40:00,
2013-08-21 12:50:00,83.8,66.9,30.15,North,356,1.0,2.0,57,0.00,,,0.00,Wunderground v.1.15,2013-08-21 16:50:00,
2013-08-21 13:00:00,84.4,67.0,30.14,North,8,1.0,1.0,56,0.00,,,0.00,Wunderground v.1.15,2013-08-21 17:00:00,
2013-08-21 13:05:00,84.7,65.1,30.14,NNW,348,1.0,1.0,52,0.00,,,0.00,Wunderground v.1.15,2013-08-21 17:05:00,
2013-08-21 13:14:00,85.1,65.5,30.14,WSW,245,1.0,1.0,52,0.00,,,0.00,Wunderground v.1.15,2013-08-21 17:14:00,
2013-08-21 13:19:00,85.6,65.4,30.14,SSE,147,1.0,1.0,51,0.00,,,0.00,Wunderground v.1.15,2013-08-21 17:19:00,
2013-08-21 13:30:00,85.6,64.2,30.14,NNW,342,1.0,1.0,49,0.00,,,0.00,Wunderground v.1.15,2013-08-21 17:30:00,
2013-08-21 13:40:00,85.6,63.7,30.13,NNW,332,1.0,1.0,48,0.00,,,0.00,Wunderground v.1.15,2013-08-21 17:40:00,
2013-08-21 13:50:00,85.8,61.4,30.13,NW,306,1.0,1.0,44,0.00,,,0.00,Wunderground v.1.15,2013-08-21 17:50:00,
2013-08-21 13:59:00,86.5,65.1,30.12,West,273,0.0,1.0,49,0.00,,,0.00,Wunderground v.1.15,2013-08-21 17:59:00,
2013-08-21 14:05:00,86.8,63.5,30.12,WNW,287,0.0,1.0,46,0.00,,,0.00,Wunderground v.1.15,2013-08-21 18:05:00,
2013-08-21 14:14:00,87.9,64.5,30.12,WNW,300,0.0,1.0,46,0.00,,,0.00,Wunderground v.1.15,2013-08-21 18:14:00,
2013-08-21 14:19:00,87.7,63.1,30.12,WSW,255,0.0,1.0,44,0.00,,,0.00,Wunderground v.1.15,2013-08-21 18:19:00,
2013-08-21 14:25:00,88.2,62.9,30.12,NNW,340,0.0,1.0,43,0.00,,,0.00,Wunderground v.1.15,2013-08-21 18:25:00,
2013-08-21 14:34:00,87.9,62.6,30.12,WNW,293,1.0,1.0,43,0.00,,,0.00,Wunderground v.1.15,2013-08-21 18:34:00,
2013-08-21 14:40:00,87.5,62.9,30.12,NW,312,1.0,2.0,44,0.00,,,0.00,Wunderground v.1.15,2013-08-21 18:40:00,
2013-08-21 14:50:00,87.1,63.2,30.11,WNW,295,1.0,1.0,45,0.00,,,0.00,Wunderground v.1.15,2013-08-21 18:50:00,
2013-08-21 14:59:00,87.7,63.1,30.11,ENE,75,0.0,1.0,44,0.00,,,0.00,Wunderground v.1.15,2013-08-21 18:59:00,
2013-08-21 15:04:00,87.7,64.4,30.10,NW,319,1.0,1.0,46,0.00,,,0.00,Wunderground v.1.15,2013-08-21 19:04:00,
2013-08-21 15:15:00,87.9,63.3,30.10,West,278,1.0,1.0,44,0.00,,,0.00,Wunderground v.1.15,2013-08-21 19:15:00,
2013-08-21 15:20:00,87.8,62.5,30.10,NNE,15,1.0,1.0,43,0.00,,,0.00,Wunderground v.1.15,2013-08-21 19:20:00,
2013-08-21 15:30:00,87.5,62.9,30.10,West,264,1.0,1.0,44,0.00,,,0.00,Wunderground v.1.15,2013-08-21 19:30:00,
2013-08-21 15:35:00,87.3,63.4,30.10,SSW,208,1.0,2.0,45,0.00,,,0.00,Wunderground v.1.15,2013-08-21 19:35:00,
2013-08-21 15:44:00,86.8,64.2,30.09,South,177,1.0,2.0,47,0.00,,,0.00,Wunderground v.1.15,2013-08-21 19:44:00,
2013-08-21 15:49:00,86.8,62.9,30.09,North,4,1.0,1.0,45,0.00,,,0.00,Wunderground v.1.15,2013-08-21 19:49:00,
2013-08-21 15:59:00,86.7,60.9,30.09,NW,312,1.0,1.0,42,0.00,,,0.00,Wunderground v.1.15,2013-08-21 19:59:00,
2013-08-21 16:04:00,86.7,61.5,30.09,WNW,298,2.0,2.0,43,0.00,,,0.00,Wunderground v.1.15,2013-08-21 20:04:00,
2013-08-21 16:15:00,86.7,62.2,30.09,West,263,1.0,2.0,44,0.00,,,0.00,Wunderground v.1.15,2013-08-21 20:15:00,
2013-08-21 16:20:00,87.0,63.1,30.09,NNW,346,1.0,1.0,45,0.00,,,0.00,Wunderground v.1.15,2013-08-21 20:20:00,
2013-08-21 16:29:00,86.9,62.4,30.08,SW,226,1.0,1.0,44,0.00,,,0.00,Wunderground v.1.15,2013-08-21 20:29:00,
2013-08-21 16:35:00,87.1,64.4,30.08,WSW,257,1.0,1.0,47,0.00,,,0.00,Wunderground v.1.15,2013-08-21 20:35:00,
2013-08-21 16:44:00,87.4,64.1,30.08,West,261,0.0,1.0,46,0.00,,,0.00,Wunderground v.1.15,2013-08-21 20:44:00,
2013-08-21 16:49:00,87.6,63.0,30.08,West,280,0.0,1.0,44,0.00,,,0.00,Wunderground v.1.15,2013-08-21 20:49:00,
2013-08-21 17:00:00,87.6,63.0,30.08,WSW,239,1.0,1.0,44,0.00,,,0.00,Wunderground v.1.15,2013-08-21 21:00:00,
2013-08-21 17:10:00,87.8,65.1,30.08,WNW,285,0.0,1.0,47,0.00,,,0.00,Wunderground v.1.15,2013-08-21 21:10:00,
2013-08-21 17:20:00,86.8,65.9,30.07,NW,304,0.0,1.0,50,0.00,,,0.00,Wunderground v.1.15,2013-08-21 21:20:00,
2013-08-21 17:29:00,86.2,65.9,30.08,NNE,19,0.0,1.0,51,0.00,,,0.00,Wunderground v.1.15,2013-08-21 21:29:00,
2013-08-21 17:35:00,85.6,66.0,30.07,NNE,20,0.0,1.0,52,0.00,,,0.00,Wunderground v.1.15,2013-08-21 21:35:00,
2013-08-21 17:45:00,84.7,66.2,30.07,NNE,15,0.0,1.0,54,0.00,,,0.00,Wunderground v.1.15,2013-08-21 21:45:00,
2013-08-21 17:55:00,83.6,65.2,30.07,NNE,15,0.0,1.0,54,0.00,,,0.00,Wunderground v.1.15,2013-08-21 21:55:00,
2013-08-21 18:05:00,82.5,65.7,30.06,NNE,15,0.0,1.0,57,0.00,,,0.00,Wunderground v.1.15,2013-08-21 22:05:00,
2013-08-21 18:14:00,82.5,66.2,30.06,NNE,15,0.0,1.0,58,0.00,,,0.00,Wunderground v.1.15,2013-08-21 22:14:00,
2013-08-21 18:20:00,82.4,66.6,30.07,NNE,15,0.0,1.0,59,0.00,,,0.00,Wunderground v.1.15,2013-08-21 22:20:00,
2013-08-21 18:29:00,81.8,68.0,30.07,SE,131,0.0,1.0,63,0.00,,,0.00,Wunderground v.1.15,2013-08-21 22:29:00,
2013-08-21 18:34:00,81.3,67.0,30.06,SE,131,0.0,1.0,62,0.00,,,0.00,Wunderground v.1.15,2013-08-21 22:34:00,
2013-08-21 18:44:00,80.7,66.9,30.06,SE,131,0.0,1.0,63,0.00,,,0.00,Wunderground v.1.15,2013-08-21 22:44:00,
2013-08-21 18:49:00,80.1,66.8,30.06,SE,128,0.0,1.0,64,0.00,,,0.00,Wunderground v.1.15,2013-08-21 22:49:00,
2013-08-21 18:55:00,79.5,66.7,30.07,SE,128,0.0,1.0,65,0.00,,,0.00,Wunderground v.1.15,2013-08-21 22:55:00,
2013-08-21 19:05:00,78.5,66.6,30.07,SE,125,0.0,1.0,67,0.00,,,0.00,Wunderground v.1.15,2013-08-21 23:05:00,
2013-08-21 19:14:00,77.6,67.0,30.07,SSE,165,0.0,1.0,70,0.00,,,0.00,Wunderground v.1.15,2013-08-21 23:14:00,
2013-08-21 19:24:00,76.7,67.0,30.07,SSE,166,0.0,1.0,72,0.00,,,0.00,Wunderground v.1.15,2013-08-21 23:24:00,
2013-08-21 19:34:00,76.0,67.5,30.07,SSE,165,0.0,1.0,75,0.00,,,0.00,Wunderground v.1.15,2013-08-21 23:34:00,
2013-08-21 19:45:00,75.5,68.2,30.06,SSE,163,0.0,1.0,78,0.00,,,0.00,Wunderground v.1.15,2013-08-21 23:45:00,
2013-08-21 19:50:00,75.2,68.2,30.06,SSE,163,0.0,1.0,79,0.00,,,0.00,Wunderground v.1.15,2013-08-21 23:50:00,
2013-08-21 19:59:00,74.8,68.2,30.07,SSE,163,0.0,1.0,80,0.00,,,0.00,Wunderground v.1.15,2013-08-21 23:59:00,
2013-08-21 20:05:00,74.6,68.4,30.07,SSE,163,0.0,1.0,81,0.00,,,0.00,Wunderground v.1.15,2013-08-22 00:05:00,